PROFILE

 METAR AND TAF INFORMATION
ADDS - METARS form results

(0605 UTC 19 July 2019)
http://aviationweather.gov/metar/data/
 
LIPZ 190550Z 02004KT 340V050 CAVOK 22/16 Q1015 NOSIG
LIPZ 190520Z VRB02KT CAVOK 22/16 Q1015 NOSIG
TAF LIPZ 190500Z 1906/2012 VRB05KT 9999 FEW040 BECMG 1909/1911 15010KT BECMG 1916/1918 VRB05KT 

 AIRPORT MAP

 RUNWAY INFORMATION
Runway 04L Runway length 9121 ft Runway width 148 ft
Runway elevation 7 ft Runway displaced threshold 308 ft Runway heading 42
Runway 22R Runway length 9121 ft Runway width 148 ft
Runway elevation 7 ft Runway displaced threshold 0 ft Runway heading 222
Runway 04R Runway length 10827 ft Runway width 148 ft
Runway elevation 7 ft Runway displaced threshold 0 ft Runway heading 42
Runway 22L Runway length 10827 ft Runway width 148 ft
Runway elevation 7 ft Runway displaced threshold 0 ft Runway heading 222

 AIRPORT FREQUENCIES
Type APP Name APP Frequency 118.9 MHZ
Type ATIS Name ATIS Frequency 122.225 MHZ
Type GND Name GND Frequency 121.7 MHZ
Type TWR Name TWR Frequency 120.2 MHZ

 AIRPORT NEAR NAVIGATION AIDS
Type VOR-DME Name Tessera Frequency 115300 KHZ
Type NDB Name Venezia Frequency 379 KHZ